Wind_Speed
26 25 25 24 23 23 23 22 22 21 21 21 20 20 20 19 18 18 17 16 15 15 14 14 14 14 15 15 15 14 14 13 12 12 12 12 13 13 13 13 13 13
24 24 23 23 22 22 22 21 21 20 20 19 18 18 17 17 17 16 16 15 14 13 13 12 11 11 11 10 11 11 11 10 9 9 9 9 10 10 11 11 10 10
23 23 23 22 22 22 21 21 20 19 18 17 17 17 16 16 16 16 15 15 14 13 13 13 12 12 11 11 10 10 10 9 8 8 7 6 6 6 6 7 8 7
22 22 22 22 21 21 21 20 20 19 19 18 17 17 16 15 15 15 14 14 14 14 14 13 13 13 13 13 12 11 11 10 10 10 9 8 7 5 5 4 4 4
21 21 20 20 20 20 20 20 20 20 19 19 18 18 18 17 16 16 15 14 14 13 13 13 13 13 14 14 14 14 13 13 12 12 11 10 10 9 8 7 5 3
19 19 19 19 20 20 20 20 20 20 19 19 19 19 18 18 18 18 17 16 15 14 14 14 13 13 13 13 14 14 14 14 14 14 13 12 11 12 12 11 10 8
18 18 19 19 19 20 20 20 20 20 20 19 19 19 18 18 18 18 18 18 17 17 16 15 14 14 13 13 13 13 13 13 14 14 14 13 12 12 12 12 12 12
18 19 19 19 20 20 20 21 21 21 20 20 19 19 19 18 18 18 18 18 18 18 17 16 15 15 15 14 14 14 14 13 13 13 13 13 13 12 11 11 11 12
19 20 20 21 22 22 22 22 22 21 21 21 21 20 20 19 19 19 18 18 19 19 18 17 17 16 16 15 15 15 15 14 15 15 14 14 14 14 14 12 11 10
21 22 23 24 25 25 25 24 24 23 22 22 22 21 21 21 20 20 19 19 19 19 20 19 19 18 18 17 17 16 16 15 15 16 15 15 15 15 16 15 14 12
24 25 27 27 28 28 28 27 26 25 24 24 23 23 22 22 21 21 21 20 20 20 21 21 20 20 20 20 19 19 18 17 16 16 16 16 16 15 16 16 16 15
28 29 31 31 31 31 30 29 29 28 27 26 26 25 24 23 23 22 22 21 21 20 21 21 20 20 20 20 20 21 21 21 20 18 17 17 16 16 16 16 16 16
31 32 33 34 33 33 32 31 31 30 29 28 28 27 26 26 25 23 22 21 21 20 20 20 19 19 19 19 20 22 24 24 23 21 20 19 17 17 17 17 17 17
33 34 35 35 35 34 33 33 32 31 31 30 29 29 28 27 26 25 24 22 21 20 19 18 17 17 17 18 20 24 26 27 26 24 22 21 20 19 19 18 17 18
35 36 36 35 35 35 34 34 33 33 32 31 30 29 29 27 26 25 24 23 21 19 18 17 16 15 15 15 20 25 28 28 28 28 25 24 22 21 20 20 18 18
36 36 36 36 35 35 35 34 34 33 32 32 31 30 29 28 26 25 24 23 22 20 18 17 15 15 15 12 14 23 28 30 30 31 29 27 25 23 22 21 20 19
37 36 36 35 35 35 35 34 34 33 32 32 31 30 29 28 27 26 24 23 22 21 20 18 16 15 16 14 11 15 24 30 32 32 31 30 28 26 24 23 22 20
36 36 36 36 35 34 34 34 33 33 32 31 31 30 29 28 28 27 25 23 22 21 20 19 18 17 16 17 17 14 18 27 32 32 33 31 29 28 25 24 24 22
35 36 36 35 35 34 34 33 33 32 31 31 31 30 29 28 28 28 27 26 24 22 21 20 19 19 18 18 20 19 18 25 31 32 32 32 31 29 27 25 25 24
34 34 34 34 34 33 33 33 33 32 31 31 31 30 30 29 29 28 28 27 26 25 24 21 19 20 20 19 21 20 18 23 31 31 31 32 32 30 28 26 26 25
33 34 34 33 32 32 32 32 32 32 31 31 31 30 30 29 29 29 29 28 28 27 27 25 21 20 21 20 21 20 19 24 31 31 30 32 31 30 28 26 25 25
34 34 35 34 33 32 32 32 32 31 31 31 31 30 30 29 29 29 29 29 28 28 28 27 23 21 21 21 21 20 20 26 31 30 28 29 30 29 28 26 25 24
34 34 34 35 35 35 34 33 32 32 31 30 30 30 29 29 28 28 28 28 28 28 28 28 26 23 22 22 21 20 21 26 30 29 27 27 28 28 27 26 25 23
33 34 34 35 35 35 35 34 33 32 31 30 30 30 29 28 28 28 28 27 27 27 26 27 27 25 23 23 21 20 22 25 28 29 28 26 26 26 26 26 25 23
33 33 34 34 35 34 34 34 33 32 32 30 30 30 29 29 28 28 28 27 27 26 26 25 26 24 23 22 21 19 20 23 26 28 28 27 26 26 26 25 25 24
33 33 34 34 34 34 33 33 32 32 31 31 30 30 30 29 28 28 28 28 26 26 25 24 23 23 21 21 20 18 17 20 24 27 28 27 27 27 26 25 25 25
Wind_Direction
356 355 355 354 352 351 350 348 348 346 343 341 339 336 334 331 328 323 320 319 317 315 313 310 308 306 303 298 295 292 287 280 275 273 270 266 266 265 263 261 260 260
359 359 359 357 356 356 354 353 352 349 348 347 344 343 340 338 336 332 329 327 326 328 328 326 325 324 322 318 314 313 311 303 295 292 285 276 273 269 265 260 256 260
2 1 0 360 359 358 357 356 354 351 350 349 346 345 343 341 341 339 336 334 332 331 334 334 335 336 337 339 335 332 334 332 332 330 318 304 296 288 280 268 258 258
5 3 2 1 0 358 357 355 353 353 352 350 350 347 346 344 343 343 341 340 338 336 336 337 337 337 338 340 342 343 346 349 352 353 347 341 340 335 330 313 282 270
5 3 2 0 359 357 355 353 351 352 351 351 351 348 347 345 343 343 343 343 343 342 341 340 338 339 338 338 339 340 343 346 351 355 353 351 353 352 353 351 341 329
2 1 359 358 357 355 353 352 351 350 349 349 349 347 346 345 343 343 342 342 344 344 343 342 340 340 340 340 340 339 340 342 344 348 350 351 352 352 352 350 349 349
0 359 357 356 355 353 352 352 350 349 347 347 346 344 343 344 342 341 341 340 340 340 341 341 339 339 339 340 341 341 340 340 340 341 343 346 347 347 348 348 349 350
359 357 356 355 353 352 351 350 349 348 347 345 344 343 343 343 341 341 341 340 338 337 336 337 337 337 336 337 338 339 338 338 338 338 338 339 339 338 341 346 346 345
355 354 353 352 350 350 349 348 348 347 346 345 343 342 342 341 341 341 340 339 338 335 334 334 335 335 335 334 334 335 336 336 337 337 337 337 338 337 337 339 339 336
350 349 349 347 346 346 346 346 345 344 344 343 342 341 340 339 339 339 338 337 336 334 333 333 333 334 334 333 332 331 331 333 334 336 336 336 336 336 335 335 334 332
344 344 344 343 343 343 342 342 342 341 340 340 339 338 337 337 336 335 335 335 333 333 332 332 332 332 331 331 331 329 328 327 328 331 334 334 334 333 333 333 332 331
339 339 339 340 340 339 339 338 338 337 337 336 335 335 334 333 333 332 332 332 331 331 330 329 329 329 329 328 326 326 325 323 322 323 326 329 331 331 330 330 329 328
335 335 335 335 335 335 335 334 333 333 333 332 332 331 331 330 329 329 329 329 328 327 326 326 325 326 328 326 325 326 323 320 319 319 320 322 327 329 328 328 327 326
330 330 331 331 331 331 330 330 330 329 329 329 328 328 327 327 327 326 325 326 325 323 322 320 318 321 322 325 331 331 324 319 317 316 317 318 321 325 325 325 325 325
326 326 326 327 327 327 327 327 327 326 326 326 325 325 325 324 324 323 322 321 320 319 317 313 310 309 311 327 344 337 325 320 317 314 314 314 317 321 322 322 322 322
322 323 323 324 324 324 324 324 324 324 324 324 323 323 322 321 321 321 320 319 317 315 314 309 304 298 294 309 343 340 329 322 316 313 312 311 314 317 318 319 319 319
320 320 321 321 321 321 321 322 322 322 322 322 322 321 321 320 319 318 318 316 315 314 312 309 304 296 288 283 297 327 330 322 313 310 309 309 312 315 315 317 317 317
319 319 319 319 320 320 320 320 320 320 320 320 320 319 319 319 318 317 316 315 313 312 310 309 305 299 291 283 277 286 312 314 306 303 304 305 308 311 313 315 315 315
318 317 318 318 319 319 320 320 319 319 319 318 318 318 318 317 316 316 315 314 313 311 308 307 305 301 295 289 282 278 290 303 299 296 299 302 304 307 311 314 313 313
318 318 317 317 318 318 318 318 318 318 318 317 316 316 316 316 315 314 314 313 312 310 309 306 304 302 296 292 289 284 287 297 294 291 295 300 302 306 309 312 312 311
318 318 317 317 318 317 316 316 316 315 316 316 315 314 314 314 314 313 312 312 311 310 309 307 305 303 298 294 293 289 288 291 290 289 293 296 300 304 307 309 310 310
318 318 317 317 318 318 317 317 316 315 315 314 313 313 313 312 312 311 310 310 311 310 309 308 307 305 301 298 295 293 291 290 290 292 293 294 298 303 306 308 308 308
317 317 317 317 317 317 318 318 317 316 316 315 313 312 312 311 310 309 309 309 310 310 309 309 308 307 305 302 299 298 296 294 295 297 296 295 298 301 304 307 307 308
317 316 316 316 315 315 316 316 316 316 316 316 314 312 312 312 310 309 309 309 309 309 308 308 308 309 307 305 304 302 298 298 299 300 300 300 299 299 302 305 307 309
316 315 314 313 313 313 314 314 315 315 315 314 314 313 312 312 311 310 309 309 309 309 308 308 308 308 308 306 305 303 300 299 299 299 302 305 302 300 301 303 305 308
314 313 312 311 312 313 313 314 314 314 313 312 312 312 311 311 312 312 310 310 310 310 310 311 311 311 310 308 305 303 301 299 298 299 303 305 303 302 302 303 305 307
Height
1534 1532 1530 1529 1527 1526 1524 1522 1521 1519 1517 1516 1514 1513 1511 1510 1508 1507 1505 1503 1502 1500 1498 1497 1495 1494 1492 1491 1490 1488 1487 1485 1483 1482 1480 1478 1477 1475 1474 1473 1473 1472
1535 1533 1532 1530 1529 1527 1525 1524 1522 1520 1518 1517 1515 1513 1512 1510 1508 1507 1505 1503 1502 1500 1498 1497 1495 1493 1491 1490 1489 1488 1486 1485 1483 1481 1479 1477 1475 1474 1473 1472 1471 1470
1536 1535 1533 1531 1530 1528 1527 1525 1523 1522 1520 1518 1516 1514 1512 1510 1508 1507 1505 1503 1502 1500 1498 1496 1495 1493 1491 1490 1488 1486 1485 1484 1483 1481 1479 1476 1475 1473 1472 1471 1469 1469
1538 1536 1535 1533 1531 1530 1528 1526 1525 1523 1521 1518 1517 1515 1513 1511 1509 1507 1505 1503 1502 1500 1498 1496 1495 1493 1492 1490 1488 1486 1485 1483 1482 1481 1479 1477 1475 1474 1472 1471 1469 1468
1539 1537 1536 1534 1533 1531 1529 1527 1525 1523 1521 1519 1517 1515 1513 1511 1509 1507 1506 1503 1502 1500 1498 1496 1494 1493 1491 1490 1488 1487 1485 1483 1482 1480 1478 1476 1475 1474 1473 1471 1470 1468
1540 1538 1537 1535 1533 1531 1529 1528 1526 1523 1521 1519 1517 1515 1513 1512 1510 1508 1506 1504 1502 1500 1498 1496 1494 1493 1491 1490 1488 1486 1485 1484 1482 1480 1478 1476 1474 1473 1472 1472 1470 1469
1541 1539 1537 1535 1534 1532 1530 1528 1526 1524 1522 1519 1517 1516 1513 1511 1510 1507 1506 1504 1502 1500 1498 1496 1494 1492 1491 1489 1488 1486 1484 1483 1482 1481 1479 1476 1475 1473 1472 1471 1470 1469
1541 1539 1538 1536 1534 1532 1530 1528 1526 1524 1522 1520 1518 1516 1513 1511 1509 1507 1505 1503 1502 1500 1498 1496 1494 1492 1491 1489 1488 1486 1484 1483 1481 1480 1479 1477 1475 1474 1472 1470 1469 1469
1541 1539 1538 1536 1534 1532 1530 1528 1526 1524 1522 1520 1517 1516 1513 1511 1509 1507 1505 1503 1501 1499 1497 1496 1494 1491 1490 1488 1487 1485 1484 1482 1481 1479 1478 1476 1475 1474 1472 1471 1469 1468
1540 1539 1537 1535 1533 1532 1530 1527 1526 1524 1522 1520 1517 1515 1513 1511 1509 1507 1505 1503 1501 1499 1496 1495 1493 1491 1489 1487 1486 1484 1483 1481 1480 1478 1477 1476 1475 1473 1472 1471 1469 1468
1539 1538 1536 1534 1532 1530 1529 1527 1525 1523 1521 1519 1517 1515 1512 1510 1508 1507 1505 1502 1500 1498 1496 1494 1492 1490 1488 1487 1485 1483 1482 1480 1478 1477 1476 1475 1474 1473 1471 1470 1468 1467
1538 1536 1534 1533 1531 1529 1527 1525 1523 1521 1519 1518 1516 1514 1511 1509 1507 1505 1503 1502 1499 1497 1495 1493 1491 1489 1487 1486 1484 1482 1480 1479 1477 1476 1475 1474 1473 1472 1470 1469 1467 1466
1536 1535 1533 1531 1529 1527 1525 1523 1521 1520 1518 1516 1514 1512 1510 1508 1506 1504 1502 1500 1498 1496 1494 1492 1490 1488 1486 1485 1483 1481 1479 1477 1475 1474 1473 1472 1472 1471 1469 1468 1466 1465
1535 1533 1531 1529 1527 1525 1523 1521 1519 1517 1515 1514 1512 1510 1508 1506 1504 1502 1500 1499 1497 1495 1493 1491 1489 1487 1485 1483 1481 1479 1477 1475 1473 1472 1471 1470 1470 1469 1468 1467 1465 1463
1533 1531 1529 1527 1525 1523 1521 1518 1517 1515 1513 1511 1509 1507 1506 1504 1502 1500 1498 1497 1495 1493 1492 1490 1488 1486 1484 1482 1480 1478 1475 1473 1471 1470 1469 1468 1467 1467 1466 1465 1464 1462
1531 1529 1526 1525 1522 1520 1518 1516 1514 1512 1510 1508 1506 1505 1503 1501 1499 1498 1496 1494 1493 1491 1490 1488 1486 1485 1483 1482 1481 1478 1474 1471 1469 1467 1466 1466 1465 1465 1464 1463 1462 1461
1528 1526 1524 1522 1520 1518 1515 1513 1511 1509 1507 1505 1503 1501 1500 1498 1497 1495 1494 1492 1490 1489 1487 1486 1485 1483 1482 1480 1480 1478 1474 1469 1466 1465 1464 1463 1463 1462 1462 1461 1460 1459
1525 1523 1521 1519 1517 1515 1513 1511 1509 1507 1505 1503 1500 1499 1497 1495 1494 1492 1491 1489 1488 1486 1485 1483 1482 1481 1480 1478 1477 1476 1474 1468 1464 1463 1461 1461 1461 1460 1459 1458 1457 1456
1522 1520 1518 1516 1514 1512 1510 1508 1506 1504 1502 1500 1498 1496 1494 1492 1491 1489 1488 1486 1485 1484 1482 1481 1480 1478 1477 1476 1474 1474 1472 1467 1462 1460 1459 1458 1458 1457 1457 1456 1454 1453
1519 1517 1515 1513 1511 1509 1507 1505 1503 1501 1499 1497 1495 1493 1491 1490 1488 1486 1485 1483 1482 1480 1479 1478 1477 1475 1474 1473 1471 1470 1470 1465 1459 1458 1458 1456 1455 1454 1454 1454 1452 1451
1517 1514 1512 1510 1509 1507 1505 1503 1501 1498 1497 1495 1492 1491 1489 1487 1485 1483 1481 1480 1478 1477 1475 1474 1474 1472 1471 1470 1468 1467 1466 1461 1455 1455 1456 1454 1452 1452 1452 1451 1450 1448
1514 1512 1509 1507 1505 1504 1502 1500 1498 1496 1494 1492 1489 1488 1486 1484 1483 1481 1479 1477 1475 1474 1472 1470 1470 1470 1468 1466 1465 1464 1462 1457 1452 1453 1453 1451 1450 1449 1449 1448 1448 1446
1512 1509 1507 1504 1502 1500 1498 1497 1494 1492 1491 1489 1486 1484 1483 1481 1480 1478 1476 1474 1473 1471 1469 1467 1466 1466 1465 1463 1462 1461 1458 1454 1450 1449 1449 1449 1448 1447 1446 1445 1444 1444
1509 1507 1504 1502 1500 1497 1495 1493 1491 1489 1488 1485 1483 1481 1479 1478 1476 1474 1473 1472 1470 1469 1467 1464 1463 1463 1462 1460 1459 1458 1455 1451 1448 1445 1445 1445 1445 1444 1443 1442 1441 1440
1506 1504 1502 1499 1497 1495 1493 1491 1488 1487 1485 1483 1481 1478 1476 1475 1473 1471 1470 1469 1467 1466 1464 1463 1461 1460 1459 1457 1455 1455 1453 1449 1445 1442 1441 1441 1441 1441 1440 1439 1438 1437
1504 1501 1499 1497 1494 1492 1490 1488 1486 1484 1481 1479 1478 1476 1473 1471 1470 1468 1466 1465 1464 1462 1461 1460 1458 1456 1456 1454 1452 1451 1450 1447 1443 1440 1439 1438 1437 1437 1437 1436 1435 1434